FW5819 Weather Reports


Display with metric or nautical units.
time (UTC)temp
F
wind
direction
speed
MPH
gust
MPH
rain 1hr
in
rain 24hr
in
rain mn
in
humidity
%
barometer
mb
20260904144537 71 200 0.0 2.0 0.01 0.40 0.17 96 1016.3
20260904143050 70 236 0.0 2.0 0.04 0.40 0.17 96 1016.3
20260904141542 70 0 1.0 3.0 0.07 0.40 0.17 96 1016.2
20260904140046 69 0 0.0 1.0 0.10 0.40 0.17 96 1016.8
20260904134546 69 0 0.0 2.0 0.12 0.39 0.16 96 1016.2
20260904133044 69 0 0.0 5.0 0.13 0.36 0.13 96 1016.3
20260904131543 69 188 1.0 4.0 0.10 0.33 0.10 96 1017.3
20260904130039 69 0 0.0 4.0 0.07 0.30 0.07 96 1016.6
20260904124538 68 190 0.0 2.0 0.04 0.27 0.04 96 1017.0
20260904123043 68 234 0.0 1.0 0.00 0.23 0.00 96 1017.5
20260904121542 68 200 0.0 0.0 0.00 0.23 0.00 96 1017.1
20260904120051 68 0 0.0 2.0 0.00 0.23 0.00 96 1016.5
20260904114543 68 157 0.0 1.0 0.00 0.23 0.00 96 1016.4
20260904113044 68 191 0.0 2.0 0.00 0.23 0.00 96 1016.6
20260904111542 68 0 0.0 1.0 0.00 0.23 0.00 96 1016.2
20260904110046 67 0 0.0 1.0 0.00 0.23 0.00 96 1016.0
20260904104551 67 0 0.0 0.0 0.00 0.23 0.00 96 1015.7
20260904103042 67 0 0.0 0.0 0.00 0.23 0.00 96 1015.6
20260904101540 67 175 0.0 0.0 0.00 0.23 0.00 96 1015.6
20260904100040 67 141 0.0 2.0 0.00 0.23 0.00 96 1015.4
20260904094543 67 0 0.0 0.0 0.00 0.23 0.00 95 1015.5
20260904093045 67 0 0.0 0.0 0.00 0.23 0.00 96 1015.9
20260904092027 67 0 0.0 0.0 0.00 0.23 0.00 96 1016.0
20260904090037 67 0 0.0 1.0 0.00 0.23 0.00 96 1015.8
20260904084541 67 144 0.0 1.0 0.00 0.23 0.00 96 1015.5
20260904083045 67 0 0.0 0.0 0.00 0.23 0.00 95 1015.4
20260904081541 67 0 0.0 0.0 0.00 0.23 0.00 95 1015.4
20260904080045 67 0 0.0 0.0 0.00 0.23 0.00 95 1015.6
20260904074546 67 0 0.0 0.0 0.00 0.23 0.00 95 1015.6
20260904073043 67 0 0.0 0.0 0.00 0.23 0.00 95 1015.7
20260904071552 67 0 0.0 0.0 0.00 0.23 0.00 95 1016.0
20260904070046 67 0 0.0 0.0 0.00 0.23 0.00 95 1016.0
20260904064542 67 0 0.0 0.0 0.00 0.23 0.00 95 1016.1
20260904063041 68 23 0.0 1.0 0.00 0.23 0.00 95 1015.9
20260904061541 68 24 0.0 1.0 0.00 0.23 0.00 95 1016.0
20260904060050 68 0 0.0 0.0 0.00 0.23 0.00 95 1016.1
20260904054544 68 0 0.0 0.0 0.00 0.23 0.00 95 1016.2
20260904053044 68 0 0.0 1.0 0.00 0.23 0.00 95 1016.1
20260904051542 68 0 0.0 1.0 0.00 0.23 0.00 95 1016.3
20260904050046 68 190 0.0 1.0 0.00 0.23 0.00 95 1016.4
20260904044542 68 0 0.0 4.0 0.00 0.23 0.00 95 1016.0
20260904043038 68 179 0.0 3.0 0.00 0.23 0.00 95 1016.0
20260904041545 69 0 0.0 4.0 0.00 0.23 0.00 95 1015.9
20260904040040 69 0 0.0 6.0 0.00 0.23 0.00 95 1015.9
20260904034538 69 0 0.0 6.0 0.00 0.23 0.23 95 1015.7
20260904033039 69 198 2.0 7.0 0.00 0.23 0.23 95 1015.5
20260904031543 69 137 2.0 4.0 0.00 0.23 0.23 95 1015.3
20260904030043 69 132 0.0 4.0 0.00 0.23 0.23 94 1015.6
20260904024540 69 147 2.0 6.0 0.00 0.23 0.23 95 1015.3
20260904023046 69 157 1.0 5.0 0.00 0.23 0.23 94 1015.2
20260904021551 69 156 1.0 6.0 0.00 0.23 0.23 94 1015.3
20260904020039 69 198 1.0 5.0 0.00 0.23 0.23 94 1015.0
20260904014542 69 135 1.0 8.0 0.00 0.23 0.23 94 1015.0
20260904013045 69 167 1.0 7.0 0.00 0.23 0.23 94 1014.7
20260904011550 69 90 2.0 9.0 0.00 0.23 0.23 94 1014.4
20260904010046 69 135 1.0 3.0 0.00 0.23 0.23 94 1014.9
20260904004544 69 0 0.0 3.0 0.04 0.23 0.23 94 1015.2
20260904003039 70 0 2.0 8.0 0.04 0.23 0.23 94 1015.2
20260904001548 70 0 1.0 5.0 0.04 0.23 0.23 94 1015.4
20260904000047 70 0 0.0 7.0 0.04 0.23 0.23 93 1015.1
20260903234543 70 0 0.0 5.0 0.00 0.19 0.19 93 1015.9
20260903233040 70 0 0.0 1.0 0.02 0.19 0.19 93 1016.1
20260903231539 70 0 0.0 3.0 0.10 0.19 0.19 93 1016.5
20260903230045 70 5 0.0 2.0 0.15 0.19 0.19 93 1017.3
20260903224543 70 0 0.0 4.0 0.17 0.18 0.18 92 1017.7
20260903223052 70 27 0.0 10.0 0.16 0.16 0.16 92 1017.9
20260903221541 71 323 4.0 19.0 0.09 0.09 0.09 91 1018.1
20260903220058 73 340 4.0 28.0 0.03 0.03 0.03 86 1016.6
20260903214539 79 0 0.0 0.0 0.00 0.00 0.00 85 1014.3
20260903213048 79 0 0.0 1.0 0.00 0.00 0.00 83 1014.6
20260903211541 81 0 0.0 1.0 0.00 0.00 0.00 82 1014.6
20260903210050 83 0 1.0 2.0 0.00 0.00 0.00 81 1013.7
20260903204542 84 0 0.0 0.0 0.00 0.00 0.00 80 1013.5
20260903203046 85 0 0.0 0.0 0.00 0.00 0.00 80 1013.1
20260903201546 85 117 1.0 4.0 0.00 0.00 0.00 79 1013.3
20260903200043 84 329 1.0 3.0 0.00 0.00 0.00 82 1013.4
20260903194547 84 0 0.0 1.0 0.00 0.00 0.00 82 1013.7
20260903193053 85 19 0.0 2.0 0.00 0.00 0.00 79 1014.0
20260903191540 85 334 2.0 7.0 0.00 0.00 0.00 76 1014.3
20260903190044 88 348 2.0 7.0 0.00 0.00 0.00 76 1014.6
20260903184543 88 15 2.0 6.0 0.00 0.00 0.00 75 1014.6
20260903183045 91 29 5.0 9.0 0.00 0.00 0.00 71 1014.6
20260903181542 93 265 3.0 7.0 0.00 0.00 0.00 65 1014.5
20260903180046 92 207 3.0 9.0 0.00 0.00 0.00 68 1014.6
20260903174540 92 280 3.0 10.0 0.00 0.00 0.00 69 1014.6
20260903173040 92 245 3.0 7.0 0.00 0.00 0.00 68 1015.2
20260903171553 92 239 2.0 8.0 0.00 0.00 0.00 69 1015.3
20260903170042 91 323 2.0 5.0 0.00 0.00 0.00 70 1015.4
20260903164542 91 215 2.0 6.0 0.00 0.00 0.00 72 1015.5
20260903163040 90 263 2.0 4.0 0.00 0.00 0.00 72 1015.7
20260903161547 89 195 2.0 5.0 0.00 0.00 0.00 73 1015.9
20260903160044 88 248 1.0 4.0 0.00 0.00 0.00 75 1015.8
20260903154541 87 267 1.0 5.0 0.00 0.00 0.00 75 1015.5
20260903153040 87 245 1.0 5.0 0.00 0.00 0.00 74 1015.6
20260903151541 87 299 3.0 7.0 0.00 0.00 0.00 73 1015.7
20260903150052 87 333 1.0 5.0 0.00 0.00 0.00 74 1015.6